Location: Augsburg
(48.3836°N, 10.8929°E)
Time: 18:41:13
(UTC+02:00)

ISS - Pass Details

Date: 11 February 2018
Orbit: 402 x 406 km, 51.6° (Epoch: 20 June)

Event Time Altitude Azimuth Distance (km) Brightness Sun altitude
Rises 19:17:01 0° 285° (WNW) 2,320 1.5 -18.0°
Reaches altitude 10° 19:19:37 10° 263° (W) 1,457 0.2 -18.4°
Maximum altitude 19:21:45 16° 222° (SW) 1,134 -1.1 -18.8°
Drops below altitude 10° 19:23:52 10° 181° (S) 1,452 -1.0 -19.1°
Enters shadow 19:24:20 - 176° (S) 1,583 -0.9 -19.2°
